Flag for Greece Weather past 2 weeks in Rhodes, Rhodes, Greece

Now
82 °F

Sunny.


Feels Like: 86 °F
Forecast: 75 / 83 °F
Wind: 9 mph from West

Location: Rhodes Airport

Current Time: Jul 22, 2014 at 10:46:43 AM

Latest Report: Jul 22, 2014 at 9:50 AM


Visibility: 10 mi

Pressure: 29.71 "Hg

Humidity: 66%

Dew point: 70 °F

Location of RhodesLocation

Historic Weather in Rhodes — Graph

°F

Rhodes temperature yesterday

Maximum temperature yesterday: 88 °F (at 3:50 PM)
Minimum temperature yesterday: 77 °F (at 4:20 AM)
Average temperature yesterday: 82 °F

Past Weeks' High & Low Weather Summary

 TemperatureHumidityPressure
High88 °F (Jul 11, 2:50 PM)94% (Jul 10, 2:50 AM)29.86 "Hg (Jul 10, 2:50 AM)
Low72 °F (Jul 8, 4:50 AM)42% (Jul 22, 5:20 AM)29.62 "Hg (Jul 21, 3:50 AM)
Average79 °F69%29.73 "Hg
* Reported Jul 7 9:20 AM — Jul 22 9:20 AM, Rhodes, Weather by CustomWeather, © 2014

Note: Actual official high and low records may vary slightly from our data, if they occured in-between our weather recording intervals... More about our weather records

Advertising

Rhodes weather history for previous 24 hours

 ConditionsComfort  
Time TempWeatherWind HumidityBarometerVisibility
9:20 AM
Jul 22
81 °FSunny.10 mph70%29.71 "Hg10 mi
8:50 AM81 °FSunny.14 mph70%29.71 "Hg10 mi
8:20 AM77 °FSunny.10 mph74%29.71 "Hg10 mi
7:50 AM79 °FSunny.10 mph70%29.71 "Hg10 mi
7:20 AM77 °FSunny.6 mph74%29.68 "Hg10 mi
6:50 AM77 °FClear.6 mph74%29.68 "Hg10 mi
6:20 AM77 °FClear.9 mph74%29.68 "Hg10 mi
5:50 AM77 °FClear.9 mph74%29.68 "Hg10 mi
5:20 AM79 °FClear.9 mph42%29.68 "Hg10 mi
4:50 AM79 °FClear.12 mph61%29.68 "Hg10 mi
4:20 AM79 °FClear.12 mph61%29.68 "Hg10 mi
3:50 AM79 °FClear.14 mph61%29.68 "Hg10 mi
3:20 AM79 °FClear.16 mph61%29.68 "Hg10 mi
2:50 AM79 °FClear.9 mph61%29.68 "Hg10 mi
2:20 AM82 °FClear.8 mph55%29.68 "Hg10 mi
1:50 AM82 °FClear.8 mph55%29.68 "Hg10 mi
1:20 AM82 °FClear.9 mph55%29.71 "Hg10 mi
12:50 AM82 °FClear.10 mph55%29.65 "Hg10 mi
12:20 AM82 °FClear.8 mph55%29.71 "Hg10 mi
11:50 PM
Jul 21
82 °FClear.8 mph55%29.71 "Hg10 mi
11:20 PM81 °FClear.10 mph54%29.71 "Hg10 mi
10:50 PM82 °FClear.10 mph55%29.71 "Hg10 mi
10:20 PM82 °FClear.12 mph55%29.71 "Hg10 mi
9:50 PM82 °FClear.13 mph55%29.68 "Hg10 mi
9:20 PM82 °FSunny.14 mph55%29.68 "Hg10 mi
8:50 PM84 °FSunny.14 mph51%29.68 "Hg10 mi
8:20 PM82 °FSunny.16 mph62%29.68 "Hg10 mi
7:50 PM84 °FSunny.15 mph58%29.68 "Hg10 mi
7:20 PM84 °FSunny.16 mph55%29.68 "Hg10 mi
6:50 PM86 °FSunny.15 mph52%29.68 "Hg10 mi
6:20 PM86 °FSunny.17 mph52%29.68 "Hg10 mi
5:50 PM88 °FSunny.17 mph49%29.68 "Hg10 mi
5:20 PM86 °FSunny.16 mph55%29.68 "Hg10 mi
4:50 PM86 °FSunny.16 mph55%29.68 "Hg10 mi
4:20 PM88 °FSunny.16 mph52%29.68 "Hg10 mi
3:50 PM88 °FSunny.15 mph52%29.68 "Hg10 mi
3:20 PM86 °FPassing clouds.16 mph55%29.68 "HgN/A
2:50 PM86 °FPassing clouds.15 mph55%29.68 "HgN/A
2:20 PM84 °FPassing clouds.14 mph55%29.68 "HgN/A
1:50 PM84 °FPassing clouds.13 mph55%29.68 "HgN/A
1:20 PM84 °FPassing clouds.14 mph55%29.68 "HgN/A
12:50 PM84 °FPassing clouds.14 mph55%29.68 "HgN/A
12:20 PM84 °FPassing clouds.12 mph55%29.68 "HgN/A
11:50 AM82 °FSunny.12 mph58%29.68 "Hg10 mi
11:20 AM82 °FSunny.10 mph58%29.68 "Hg10 mi
10:50 AM82 °FSunny.8 mph58%29.68 "Hg10 mi
10:20 AM82 °FSunny.9 mph58%29.68 "Hg10 mi
Weather by CustomWeather, © 2014

See weather overviewHow to use our weather pages